Weather History for Fortuna, CA

Change the Weather History Date:

Monday, April 22, 2013

  Actual Average (KEKA) Record (KEKA)
Temperature  
Mean Temperature 52 °F 51 °F  
Max Temperature 59 °F 58 °F 75 °F (1982)
Min Temperature 46 °F 45 °F 37 °F (1968)
Degree Days  
Heating Degree Days 12 14  
Month to date heating degree days 319  
Since 1 July heating degree days 3717  
Cooling Degree Days 0 0  
Month to date cooling degree days 0  
Year to date cooling degree days 0  
Growing Degree Days 2 (Base 50)    
Moisture  
Dew Point 49 °F    
Average Humidity 92    
Maximum Humidity 100    
Minimum Humidity 72    
Precipitation  
Precipitation 0.00 in 0.10 in 1.46 in (1983)
Month to date precipitation 2.61  
Year to date precipitation 20.04  
Since 1 July precipitation 37.09  
Snow  
Snow 0.00 in 0.00 in 0.00 in (2002)
Month to date snowfall 0.0  
Since 1 July snowfall 0.2  
Snow Depth -    
Sea Level Pressure  
Sea Level Pressure 30.10 in    
Wind  
Wind Speed 6 mph (WNW)    
Max Wind Speed 20 mph    
Max Gust Speed 25 mph    
Visibility 8 miles    
Events      
T = Trace of Precipitation, MM = Missing Value Source: NWS Daily Summary

Daily Weather History Graph

Daily Weather History Graph

Search for Another Location

Airport:

Trip Planner

Search our weather history database for the weather conditions in past years. The results will help you decide how hot, cold, wet, or windy it might be!

Date:

Astronomy

Apr. 22, 2013 Rise Set
Actual Time 6:27 AM PDT 8:03 PM PDT
Civil Twilight 5:58 AM PDT 8:32 PM PDT
Nautical Twilight 5:23 AM PDT 9:07 PM PDT
Astronomical Twilight 4:46 AM PDT 9:44 PM PDT
Moon 4:57 PM PDT (4/22) 4:25 AM PDT (4/22)
Length of Visible Light 14h 34m
Length of Day
13h 36m
Waxing Gibbous, 88% of the Moon is Illuminated
Apr 22
Waxing Gibbous
Apr 25
Full
May 2
Last Quarter
May 9
New
May 17
First Quarter

Hourly Weather History & Observations

Time (PDT) Temp. Windchill Dew Point Humidity Pressure Visibility Wind Dir Wind Speed Gust Speed Precip Events Conditions
12:15 AM 48.2 °F - 48.2 °F 100% 30.19 in 10.0 mi NW 8.1 mph - N/A   Overcast
12:35 AM 48.2 °F - 48.2 °F 100% 30.19 in 10.0 mi NW 6.9 mph - N/A   Overcast
12:55 AM 48.2 °F - 48.2 °F 100% 30.19 in 10.0 mi NW 5.8 mph - N/A   Overcast
1:15 AM 48.2 °F - 48.2 °F 100% 30.18 in 10.0 mi NW 9.2 mph - N/A   Overcast
1:35 AM 48.2 °F - 48.2 °F 100% 30.18 in 10.0 mi NW 5.8 mph - N/A   Overcast
1:55 AM 48.2 °F - 48.2 °F 100% 30.18 in 8.0 mi NW 5.8 mph - N/A   Overcast
2:15 AM 48.2 °F - 48.2 °F 100% 30.17 in 5.0 mi NNW 6.9 mph - N/A   Overcast
2:35 AM 48.2 °F - 48.2 °F 100% 30.17 in 3.0 mi WNW 3.5 mph - N/A   Overcast
2:55 AM 46.4 °F - 46.4 °F 100% 30.16 in 0.8 mi Calm Calm - N/A   Overcast
3:15 AM 46.4 °F 44.3 °F 46.4 °F 100% 30.15 in 2.5 mi NW 4.6 mph - N/A   Overcast
3:35 AM 46.4 °F 45.2 °F 46.4 °F 100% 30.15 in 3.0 mi NNW 3.5 mph - N/A   Overcast
3:55 AM 46.4 °F 45.2 °F 46.4 °F 100% 30.15 in 1.2 mi NNW 3.5 mph - N/A   Overcast
4:15 AM 46.4 °F - 46.4 °F 100% 30.14 in 0.5 mi Calm Calm - N/A   Overcast
4:35 AM 46.4 °F - 46.4 °F 100% 30.14 in 0.2 mi Calm Calm - N/A   Overcast
4:55 AM 46.4 °F - 46.4 °F 100% 30.13 in 0.2 mi Calm Calm - N/A   Overcast
5:15 AM 46.4 °F - 46.4 °F 100% 30.13 in 0.5 mi Calm Calm - N/A   Overcast
5:35 AM 46.4 °F - 46.4 °F 100% 30.13 in 1.0 mi Calm Calm - N/A   Overcast
5:55 AM 46.4 °F - 46.4 °F 100% 30.13 in 1.0 mi Calm Calm - N/A   Overcast
6:15 AM 46.4 °F - 46.4 °F 100% 30.13 in 3.0 mi Calm Calm - N/A   Overcast
6:35 AM 46.4 °F - 46.4 °F 100% 30.13 in 7.0 mi Calm Calm - N/A   Overcast
6:55 AM 46.4 °F - 46.4 °F 100% 30.13 in 5.0 mi Calm Calm - N/A   Overcast
7:15 AM 46.4 °F 45.2 °F 46.4 °F 100% 30.13 in 1.5 mi ESE 3.5 mph - N/A   Overcast
7:35 AM 46.4 °F 45.2 °F 46.4 °F 100% 30.14 in 3.0 mi ESE 3.5 mph - N/A   Overcast
7:55 AM 46.4 °F - 46.4 °F 100% 30.14 in 2.5 mi Calm Calm - N/A   Overcast
8:15 AM 46.4 °F - 46.4 °F 100% 30.14 in 1.2 mi Calm Calm - N/A   Overcast
8:35 AM 46.4 °F - 46.4 °F 100% 30.14 in 4.0 mi Calm Calm - N/A   Overcast
8:55 AM 48.2 °F - 48.2 °F 100% 30.14 in 8.0 mi Calm Calm - N/A   Overcast
9:15 AM 48.2 °F - 48.2 °F 100% 30.14 in 7.0 mi Calm Calm - N/A   Overcast
9:35 AM 48.2 °F - 48.2 °F 100% 30.14 in 9.0 mi Calm Calm - N/A   Overcast
9:55 AM 50.0 °F - 50.0 °F 100% 30.13 in 10.0 mi Calm Calm - N/A   Overcast
10:15 AM 50.0 °F - 50.0 °F 100% 30.13 in 10.0 mi Calm Calm - N/A   Overcast
10:35 AM 53.6 °F - 53.6 °F 100% 30.13 in 10.0 mi Calm Calm - N/A   Mostly Cloudy
10:55 AM 53.6 °F - 53.6 °F 100% 30.12 in 10.0 mi West 3.5 mph - N/A   Mostly Cloudy
11:15 AM 55.4 °F - 55.4 °F 100% 30.13 in 10.0 mi NW 6.9 mph - N/A   Scattered Clouds
11:35 AM 55.4 °F - 55.4 °F 100% 30.12 in 10.0 mi WNW 8.1 mph - N/A   Partly Cloudy
11:55 AM 57.2 °F - 55.4 °F 94% 30.12 in 10.0 mi WNW 10.4 mph - N/A   Clear
12:15 PM 57.2 °F - 55.4 °F 94% 30.11 in 10.0 mi WNW 11.5 mph - N/A   Clear
12:35 PM 57.2 °F - 53.6 °F 88% 30.11 in 10.0 mi West 13.8 mph 18.4 mph N/A   Clear
12:55 PM 57.2 °F - 53.6 °F 88% 30.10 in 10.0 mi WNW 16.1 mph - N/A   Clear
1:15 PM 57.2 °F - 53.6 °F 88% 30.10 in 10.0 mi WNW 19.6 mph - N/A   Clear
1:35 PM 57.2 °F - 51.8 °F 82% 30.09 in 10.0 mi West 13.8 mph 21.9 mph N/A   Clear
1:55 PM 59.0 °F - 50.0 °F 72% 30.08 in 10.0 mi West 12.7 mph 20.7 mph N/A   Clear
2:15 PM 59.0 °F - 50.0 °F 72% 30.08 in 10.0 mi West 16.1 mph 23.0 mph N/A   Clear
2:35 PM 59.0 °F - 50.0 °F 72% 30.08 in 10.0 mi WNW 15.0 mph 23.0 mph N/A   Clear
2:55 PM 59.0 °F - 50.0 °F 72% 30.08 in 10.0 mi WNW 16.1 mph 21.9 mph N/A   Clear
3:15 PM 57.2 °F - 50.0 °F 77% 30.08 in 10.0 mi West 15.0 mph 23.0 mph N/A   Clear
3:35 PM 57.2 °F - 50.0 °F 77% 30.07 in 10.0 mi West 13.8 mph 20.7 mph N/A   Clear
3:55 PM 57.2 °F - 50.0 °F 77% 30.07 in 10.0 mi WNW 16.1 mph 21.9 mph N/A   Clear
4:15 PM 57.2 °F - 50.0 °F 77% 30.06 in 10.0 mi WNW 16.1 mph 23.0 mph N/A   Clear
4:35 PM 57.2 °F - 48.2 °F 72% 30.06 in 10.0 mi West 17.3 mph 25.3 mph N/A   Clear
4:55 PM 57.2 °F - 48.2 °F 72% 30.05 in 10.0 mi WNW 15.0 mph 23.0 mph N/A   Clear
5:15 PM 57.2 °F - 48.2 °F 72% 30.04 in 10.0 mi WNW 17.3 mph 23.0 mph N/A   Clear
5:35 PM 57.2 °F - 48.2 °F 72% 30.04 in 10.0 mi WNW 13.8 mph 23.0 mph N/A   Clear
5:55 PM 55.4 °F - 48.2 °F 77% 30.04 in 10.0 mi West 15.0 mph 19.6 mph N/A   Clear
6:15 PM 55.4 °F - 48.2 °F 77% 30.03 in 10.0 mi West 13.8 mph - N/A   Clear
6:35 PM 55.4 °F - 48.2 °F 77% 30.03 in 10.0 mi West 12.7 mph 20.7 mph N/A   Clear
6:55 PM 55.4 °F - 46.4 °F 72% 30.03 in 10.0 mi West 11.5 mph - N/A   Clear
7:15 PM 53.6 °F - 46.4 °F 77% 30.03 in 9.0 mi WNW 10.4 mph - N/A   Clear
7:35 PM 53.6 °F - 46.4 °F 77% 30.03 in 9.0 mi West 9.2 mph - N/A   Clear
7:55 PM 51.8 °F - 46.4 °F 82% 30.03 in 9.0 mi WNW 9.2 mph - N/A   Clear
8:15 PM 50.0 °F - 46.4 °F 87% 30.03 in 9.0 mi WNW 6.9 mph - N/A   Clear
8:35 PM 50.0 °F - 46.4 °F 87% 30.03 in 10.0 mi WNW 3.5 mph - N/A   Clear
8:55 PM 50.0 °F - 46.4 °F 87% 30.03 in 10.0 mi Calm Calm - N/A   Clear
9:15 PM 48.2 °F - 46.4 °F 93% 30.03 in 10.0 mi ESE 4.6 mph - N/A   Clear
9:35 PM 48.2 °F - 48.2 °F 100% 30.03 in 10.0 mi ESE 5.8 mph - N/A   Clear
9:55 PM 48.2 °F - 48.2 °F 100% 30.03 in 10.0 mi East 8.1 mph - N/A   Clear
10:15 PM 48.2 °F - 48.2 °F 100% 30.03 in 10.0 mi ESE 9.2 mph - N/A   Clear
10:35 PM 48.2 °F - 48.2 °F 100% 30.02 in 10.0 mi SE 10.4 mph - N/A   Clear
10:55 PM 46.4 °F 41.1 °F 46.4 °F 100% 30.02 in 10.0 mi SE 11.5 mph - N/A   Clear
11:15 PM 48.2 °F - 48.2 °F 100% 30.01 in 10.0 mi SE 9.2 mph - N/A   Clear
11:35 PM 46.4 °F 41.5 °F 46.4 °F 100% 30.01 in 10.0 mi SE 10.4 mph - N/A   Clear
11:55 PM 46.4 °F 41.5 °F 46.4 °F 100% 30.01 in 10.0 mi SE 10.4 mph - N/A   Clear